• Processing (Info)

  • MPEC 2013-Y48 : 2013 YA14

    The following Minor Planet Electronic Circular may be linked-to from your own Web pages, but must not otherwise be redistributed electronically.

    A form allowing access to any MPEC is at the bottom of this page.


    Read MPEC 2013-Y47 Read MPEC 2013-Y49


    M.P.E.C. 2013-Y48                                Issued 2013 Dec. 27, 20:37 UT
    
         The Minor Planet Electronic Circulars contain information on unusual
             minor planets and routine data on comets.  They are published
       on behalf of Commission 20 of the International Astronomical Union by the
              Minor Planet Center, Smithsonian Astrophysical Observatory,
                              Cambridge, MA 02138, U.S.A.
    
                 Prepared using the Tamkin Foundation Computer Network
    
                                  MPC@CFA.HARVARD.EDU
                URL https://www.minorplanetcenter.net/    ISSN 1523-6714
    
                                       2013 YA14
    
    Observations:
         K13Y14A* C2013 12 26.11601 00 27 03.93 +15 32 43.3          19.5 VqEY048703
         K13Y14A  C2013 12 26.12307 00 26 51.57 +15 30 32.7          19.1 VqEY048703
         K13Y14A  C2013 12 26.13012 00 26 39.11 +15 28 20.6          19.2 VqEY048703
         K13Y14A  C2013 12 26.13718 00 26 26.60 +15 26 08.5          19.1 VqEY048703
         K13Y14A  C2013 12 26.16953 00 25 29.84 +15 16 03.1          19.0 VqEY048703
         K13Y14A  C2013 12 26.17004 00 25 28.92 +15 15 53.5          18.8 VqEY048703
         K13Y14A  C2013 12 26.17054 00 25 27.97 +15 15 43.5          19.1 VqEY048703
         K13Y14A  C2013 12 26.17105 00 25 27.07 +15 15 35.1          18.6 VqEY048703
         K13Y14A  C2013 12 26.20067 00 24 35.41 +15 06 16.9          18.7 VqEY048703
         K13Y14A  C2013 12 26.20117 00 24 34.43 +15 06 06.8          19.1 VqEY048703
         K13Y14A  C2013 12 26.20167 00 24 33.51 +15 05 57.2          18.9 VqEY048703
         K13Y14A  C2013 12 26.20218 00 24 32.58 +15 05 46.7          18.7 VqEY048703
         K13Y14A KC2013 12 26.74815700 09 20.61 +12 10 40.1          19.3 VuEY048I93
         K13Y14A KC2013 12 26.75499100 09 08.45 +12 08 25.7          19.2 VuEY048I93
         K13Y14A KC2013 12 26.76023400 08 59.16 +12 06 42.0          19.0 VuEY048I93
         K13Y14A KC2013 12 26.76456200 08 51.48 +12 05 17.2          18.8 VuEY048I93
         K13Y14A KC2013 12 26.77002900 08 41.80 +12 03 29.3          19.2 VuEY048I93
         K13Y14A  C2013 12 27.05816500 00 32.36 +10 28 25.5          19.2 RtEY048H01
         K13Y14A  C2013 12 27.06416400 00 21.62 +10 26 24.3          19.1 RtEY048H01
         K13Y14A  C2013 12 27.06811600 00 14.56 +10 25 04.5          19.4 RtEY048H01
         K13Y14A KC2013 12 27.07537 23 59 59.27 +10 22 15.9          19.1 RqEY048H36
         K13Y14A  C2013 12 27.07796323 59 56.96 +10 21 45.6          19.5 RtEY048H01
         K13Y14A KC2013 12 27.07914 23 59 52.54 +10 20 59.2          18.8 RqEY048H36
         K13Y14A KC2013 12 27.08065 23 59 49.88 +10 20 28.6          18.9 RqEY048H36
    
    Observer details:
    703 Catalina Sky Survey.  Observer A. Boattini.  Measurers A. Boattini,
        E. J. Christensen, A. R. Gibbs, A. D. Grauer, R. E. Hill, J. A. Johnson,
        R. A. Kowalski, S. M. Larson, F. C. Shelly.  0.68-m Schmidt + CCD.
    H01 Magdalena Ridge Observatory, Socorro.  Observer W. H. Ryan.  2.4-m f/8.9
        reflector + CCD.
    H36 Sandlot Observatory, Scranton.  Observer G. Hug.  0.56-m reflector + CCD.
    I93 St Pardon de Conques.  Observer F. Losse.  0.40-m f/3.7 reflector + CCD.
    
    Orbital elements:
    2013 YA14                                                Earth MOID = 0.0057 AU
    Epoch 2013 Nov. 4.0 TT = JDT 2456600.5                  MPC
    M 275.35023              (2000.0)            P               Q
    n   0.76848008     Peri.  256.88643     -0.99187503     -0.09905876
    a   1.1804501      Node   277.38656     +0.12310862     -0.90555181
    e   0.3484478      Incl.    4.61664     -0.03206557     -0.41250853
    P   1.28           H   23.5           G   0.15           U   8
    Residuals in seconds of arc
    131226 703  1.1-  0.3-    131226 703  1.5+  1.1+    131226 I93  0.4+  0.4+
    131226 703  0.5+  0.4+    131226 703  0.1-  0.4+    131227 H01  0.1+  0.2+
    131226 703  0.2+  0.4-    131226 703  0.8-  0.3+    131227 H01  0.1+  0.1+
    131226 703  0.6-  0.7-    131226 703  1.4-  0.6-    131227 H01  0.3+  0.1+
    131226 703  1.3+  0.0     131226 I93  0.1-  0.4-    131227 H36  0.0   0.0
    131226 703  1.0+  0.0     131226 I93  0.4-  0.1-    131227 H01  0.4+  0.3+
    131226 703  0.1-  0.6-    131226 I93  0.1-  0.4-    131227 H36  0.5-  0.3-
    131226 703  0.2-  0.6+    131226 I93  0.0   0.2+    131227 H36  0.2-  0.3-
    
    Ephemeris:
    2013 YA14                a,e,i = 1.18, 0.35, 5                   q = 0.7691
    Date    TT    R. A. (2000) Decl.     Delta      r     Elong.  Phase     V
    2013 11 27    05 07 08.2 +38 05 46   0.1816  1.1583   159.1    17.7    21.0
    ...
    2013 12 12    04 13 07.8 +38 36 32   0.09276 1.0719   159.4    18.8    19.4
    ...
    2013 12 20    02 46 40.9 +34 07 34   0.05402 1.0249   138.5    39.5    18.8
    ...
    2013 12 26    00 30 24.4 +16 09 36   0.03544 0.9897    99.1    78.9    19.0
    2013 12 27    00 02 14.8 +10 49 50   0.03438 0.9839    89.7    88.3    19.3
    2013 12 28    23 34 03.3 +05 08 02   0.03413 0.9781    80.0    98.1    19.7
    ...
    2014 01 03    21 16 57.0 -21 26 40   0.04778 0.9437    33.1   145.3    24.4
    ...
    2014 01 11    19 50 07.4 -32 05 48   0.08539 0.8999    11.3   167.7    32.8
    ...
    2014 01 26    19 01 04.4 -34 39 27   0.1769  0.8288    25.7   149.0    27.6
    
    A. U. Tomatic                (C) Copyright 2013 MPC           M.P.E.C. 2013-Y48
    

    Read MPEC 2013-Y47 Read MPEC 2013-Y49


    MPEC number:

    Enter an MPEC number in one of the following forms:

    • 1997-B01 (the full form)
    • J97B01 (the packed version of the full form)
    • B01 (the abbreviated form)